This is the latest recevied weather packets stored in our database for station/object DB0MAK-13. If no packets are shown the sender has not sent any weather packets the latest 1 day(s).
| Time | Temp. | Humidity | Pressure | Rain* | Wind** | Luminosity | Snow |
|---|---|---|---|---|---|---|---|
| 1778033107 | 11.11° C | 91% | 1005.2 hPa | 0 mm | 0.45 m/s, 208° | - | - |
| 1778033044 | 11.11° C | 92% | 1005.2 hPa | 0 mm | 0 m/s | - | - |
| 1778032687 | 11.11° C | 91% | 1005 hPa | 0 mm | 2.68 m/s, 201° | - | - |
| 1778032444 | 11.11° C | 92% | 1005.1 hPa | 0 mm | 2.68 m/s, 192° | - | - |
| 1778032267 | 11.11° C | 92% | 1005.1 hPa | 0 mm | 2.68 m/s, 199° | - | - |
| 1778031844 | 11.11° C | 92% | 1005 hPa | 0 mm | 1.34 m/s, 210° | - | - |
| 1778031244 | 11.11° C | 92% | 1005.1 hPa | 0 mm | 0.45 m/s, 220° | - | - |
| 1778031007 | 11.11° C | 92% | 1005.1 hPa | 0 mm | 0.45 m/s, 221° | - | - |
| 1778030644 | 11.11° C | 92% | 1005.1 hPa | 0 mm | 1.79 m/s, 213° | - | - |
| 1778030167 | 11.11° C | 92% | 1005.1 hPa | 0 mm | 0.45 m/s, 217° | - | - |
| 1778030044 | 11.11° C | 92% | 1005.1 hPa | 0 mm | 0.45 m/s, 224° | - | - |
| 1778029747 | 11.11° C | 91% | 1005.2 hPa | 0 mm | 1.79 m/s, 217° | - | - |
| 1778029444 | 11.11° C | 91% | 1005.2 hPa | 0 mm | 0.45 m/s, 205° | - | - |
| 1778029327 | 11.11° C | 91% | 1005.2 hPa | 0 mm | 1.34 m/s, 219° | - | - |
| 1778028907 | 11.11° C | 92% | 1005.2 hPa | 0 mm | 0.45 m/s, 201° | - | - |
| 1778028844 | 11.11° C | 91% | 1005.2 hPa | 0 mm | 0.45 m/s, 209° | - | - |
| 1778028489 | 11.11° C | 92% | 1005.2 hPa | 0 mm | 0.45 m/s, 241° | - | - |
| 1778028244 | 11.11° C | 91% | 1005.2 hPa | 0 mm | 1.34 m/s, 234° | - | - |
| 1778028067 | 11.11° C | 91% | 1005.2 hPa | 0 mm | 0.45 m/s, 225° | - | - |
| 1778027644 | 11.11° C | 91% | 1005.2 hPa | 0 mm | 1.34 m/s, 227° | - | - |
| 1778027227 | 11.11° C | 91% | 1005.4 hPa | 0 mm | 1.34 m/s, 227° | - | - |
| 1778027044 | 11.11° C | 92% | 1005.5 hPa | 0 mm | 3.58 m/s, 220° | - | - |
| 1778026807 | 11.11° C | 92% | 1005.5 hPa | 0 mm | 1.79 m/s, 225° | - | - |
| 1778026444 | 11.11° C | 92% | 1005.5 hPa | 0 mm | 3.58 m/s, 217° | - | - |
| 1778026389 | 11.11° C | 92% | 1005.6 hPa | 0 mm | 2.68 m/s, 217° | - | - |
* Rain latest hour (hover to see other rain measurements)
** Current wind speed in m/s (hover to see current wind gust speed)